Wind_Speed
35 35 33 25 16 15 18 16 18 15 16 22 22 26 35 36 31 26 25 35 31 33 28 26 27 29 30 30 27 26 26 28 25 27 25 27 23 19 20 23 23 23 13 10
38 40 30 25 26 25 25 22 22 22 23 28 28 30 35 31 20 19 22 22 25 30 24 25 26 29 29 26 26 24 25 25 24 25 23 22 18 18 18 22 23 19 12 8
40 30 29 29 30 30 31 26 23 21 23 24 24 30 25 18 22 25 24 25 22 22 21 23 22 25 24 23 23 22 25 24 23 23 23 19 19 17 19 19 21 16 16 7
36 32 33 31 34 29 28 19 17 24 25 26 19 25 23 21 18 24 31 27 20 19 18 19 19 22 22 22 22 20 23 22 20 20 21 20 16 16 18 19 19 19 14 10
23 30 33 31 30 27 24 18 21 29 25 27 28 29 16 13 13 20 32 38 22 18 19 18 19 23 21 21 21 20 20 20 18 17 17 16 14 19 17 15 15 18 17 15
30 28 30 27 24 25 23 22 30 27 23 29 21 18 11 6 15 23 33 30 22 20 20 17 20 18 17 18 17 20 18 16 16 14 14 16 17 20 16 10 16 18 16 13
35 33 28 28 31 27 26 33 30 27 28 25 14 17 17 16 24 29 24 18 21 18 15 16 19 16 14 17 15 18 15 13 14 11 12 14 16 16 14 12 17 18 17 10
36 37 34 29 29 30 34 32 29 28 23 11 15 15 20 23 25 22 18 14 18 16 14 17 18 13 14 15 14 15 13 11 12 10 11 12 14 16 14 15 18 11 11 10
38 34 27 31 31 33 34 31 22 24 17 18 15 15 19 29 24 28 22 15 15 16 15 18 16 11 15 11 14 15 14 11 9 7 9 11 15 14 15 16 23 13 10 9
39 32 31 24 30 35 32 26 29 26 25 24 20 16 18 28 28 20 22 20 16 15 15 16 11 10 13 9 12 14 13 8 8 6 9 11 11 12 12 17 18 12 10 11
42 33 31 31 42 36 33 36 36 26 22 18 16 11 16 28 24 29 30 18 13 14 14 12 6 10 6 8 11 14 11 9 10 4 9 10 10 11 13 17 21 13 12 13
46 46 37 40 36 36 28 31 34 28 23 23 18 12 25 23 24 29 26 16 15 14 12 7 5 7 5 7 10 13 11 9 10 9 7 9 9 11 12 17 20 14 12 16
45 51 46 34 34 44 38 35 33 31 30 26 23 18 24 29 27 20 27 18 12 11 10 3 4 5 6 7 9 11 12 10 8 12 12 11 12 12 12 13 19 13 13 13
46 48 52 49 43 43 39 37 35 34 35 32 26 15 19 33 23 24 23 13 10 11 9 4 4 5 5 6 9 10 10 11 10 11 11 12 12 12 14 11 16 22 17 13
42 51 48 42 39 40 41 39 35 37 34 32 21 23 21 24 22 19 22 23 16 9 9 5 3 4 3 5 7 9 9 10 8 9 8 9 9 10 12 12 12 17 18 13
46 51 47 42 41 38 39 40 35 33 34 35 28 27 20 22 19 15 27 25 18 11 8 7 3 3 3 3 5 7 7 9 9 8 8 8 9 10 11 11 7 10 16 17
44 50 52 49 42 37 40 41 40 35 34 34 31 27 25 17 19 21 29 23 23 10 8 8 5 1 3 3 2 4 5 6 7 7 7 9 9 10 10 11 11 11 16 18
48 51 53 50 41 51 46 40 41 38 38 35 32 29 25 25 22 23 23 25 20 11 7 7 8 4 2 2 2 2 3 4 6 7 7 9 10 10 10 14 16 16 17 16
52 52 57 54 49 47 47 39 34 37 39 38 37 35 28 27 28 26 23 23 23 8 9 7 12 7 4 2 1 1 2 3 2 4 6 9 11 13 13 14 13 13 14 15
52 50 51 53 52 50 41 41 33 33 42 36 38 39 30 29 31 23 20 22 24 15 10 8 12 11 9 7 4 3 3 1 1 3 5 8 11 13 14 13 11 10 10 12
50 50 58 49 39 38 46 31 33 50 47 40 40 39 33 34 33 16 18 24 22 19 13 10 13 13 10 9 8 4 3 4 1 4 6 7 8 10 11 11 11 10 8 7
51 46 58 58 48 45 31 36 38 43 39 44 41 38 31 35 31 27 31 25 24 26 13 10 12 17 13 12 10 8 6 5 6 3 6 6 6 6 8 7 5 5 6 7
46 46 45 55 65 41 42 35 33 41 36 40 41 39 34 33 31 31 34 28 29 17 16 13 10 13 14 17 15 12 9 7 8 8 7 7 7 5 5 4 4 5 5 7
48 52 41 54 49 52 48 44 39 30 31 36 36 43 39 32 32 33 30 27 21 19 20 16 15 11 11 16 18 18 12 9 10 11 10 9 9 8 6 6 5 4 3 2
63 73 65 56 43 46 45 42 40 41 40 41 37 31 32 34 33 31 29 28 23 22 21 18 17 17 15 16 21 21 16 13 12 13 14 13 11 11 10 10 9 7 5 3
55 52 52 55 60 51 42 52 39 45 48 47 45 45 38 34 33 29 31 25 25 26 24 19 19 21 20 22 23 25 26 20 18 16 16 19 17 17 16 15 15 13 13 12
Wind_Direction
246 248 252 265 278 249 257 252 255 270 276 278 277 294 290 291 300 294 281 274 290 302 309 309 308 314 324 321 319 321 329 330 328 330 331 329 327 318 333 342 344 345 341 332
241 248 256 259 249 246 250 257 246 245 248 253 255 271 271 290 300 298 290 287 292 299 307 305 313 317 321 317 319 324 329 328 328 330 334 338 344 347 337 339 340 353 349 345
246 255 250 248 248 252 259 260 249 254 259 258 263 274 290 316 299 289 288 304 300 311 311 312 313 313 318 316 319 327 330 329 330 330 335 338 346 341 343 351 346 352 6 350
242 241 240 238 245 250 255 253 260 255 250 257 255 272 273 288 308 314 298 312 313 307 314 306 307 309 319 318 321 330 331 330 330 331 337 343 352 343 339 342 346 354 12 6
237 235 235 236 238 243 243 231 244 258 265 267 268 271 287 292 330 285 277 297 314 318 310 307 306 312 311 315 325 331 332 328 327 333 341 356 351 345 337 347 354 7 14 7
230 230 229 232 233 241 228 234 236 244 253 264 276 288 287 317 277 265 278 299 319 320 313 307 313 316 310 320 328 335 332 329 327 338 343 3 355 1 359 4 7 5 358 12
224 227 224 217 220 232 219 221 235 250 256 270 287 302 313 282 260 270 305 291 309 311 310 311 309 312 319 327 332 338 332 329 338 342 342 2 5 14 28 7 1 351 2 38
233 224 226 219 218 216 224 234 237 248 265 300 326 262 275 290 305 312 313 289 303 311 314 309 315 315 325 333 336 336 331 336 342 341 346 7 14 23 23 13 355 350 15 44
233 231 228 222 225 212 228 238 251 236 239 241 244 297 299 303 308 311 336 320 298 303 306 304 306 312 331 334 343 336 330 337 346 344 356 16 22 27 17 2 6 34 22 52
232 233 220 222 214 224 221 243 237 235 241 241 242 245 267 282 287 293 305 313 311 306 298 313 303 323 331 349 351 345 341 18 10 6 5 10 19 18 11 11 20 19 41 49
223 223 223 212 216 226 221 216 238 241 244 245 275 299 249 266 279 294 305 298 318 316 299 312 307 324 344 4 2 355 358 16 15 346 354 4 24 28 30 29 35 43 54 61
220 220 206 217 223 235 237 228 232 245 241 241 224 258 255 256 275 288 306 289 296 306 312 311 315 339 8 14 11 360 5 11 35 30 31 35 44 48 43 43 38 46 66 72
213 211 215 210 214 230 228 220 219 236 243 245 241 234 264 276 282 300 306 302 300 310 325 306 334 357 19 18 20 3 18 33 50 53 43 51 62 59 52 46 48 55 45 81
217 214 220 222 213 225 235 226 233 239 245 249 248 226 249 257 277 302 308 315 295 299 316 296 345 10 32 28 33 13 23 45 48 68 47 54 72 63 63 49 61 63 66 75
222 209 220 222 210 223 235 238 232 240 250 249 255 242 231 275 289 297 299 312 322 296 301 283 323 22 44 44 39 25 22 43 48 55 47 48 62 66 66 65 58 70 71 86
221 211 214 218 214 217 229 241 230 233 242 250 247 250 239 229 272 290 282 285 309 304 305 267 256 25 63 56 45 35 24 31 38 52 55 61 64 82 78 72 68 65 83 79
208 208 204 211 211 200 222 225 233 229 234 245 250 249 235 221 230 235 254 272 272 288 306 249 233 86 79 83 52 46 27 23 39 52 73 80 85 78 77 76 89 92 91 94
192 211 204 210 208 213 211 228 235 236 236 236 243 248 248 228 228 245 240 274 279 275 282 245 225 204 105 93 84 68 54 44 58 69 79 89 88 83 87 96 99 100 99 94
198 201 202 208 215 222 220 210 225 231 235 238 239 243 244 251 233 236 233 252 259 251 277 257 225 175 193 199 141 131 89 70 68 78 103 109 103 101 102 103 102 99 103 109
193 200 199 208 215 215 216 222 211 222 234 232 237 239 237 240 237 240 245 243 254 246 246 236 220 217 227 225 221 186 160 126 73 127 123 128 124 119 116 111 101 96 92 91
190 202 196 195 202 223 219 211 216 231 234 238 240 241 239 240 243 225 227 242 252 239 235 241 208 219 232 229 235 209 187 178 184 186 157 144 148 143 138 132 125 117 110 106
198 207 201 203 204 208 201 210 222 236 232 231 236 238 235 234 236 225 219 227 236 242 225 230 220 221 227 228 232 224 203 182 185 205 206 188 177 166 162 162 158 146 135 127
192 201 204 211 213 208 206 210 220 230 232 233 230 232 233 232 229 226 227 231 229 231 219 215 215 211 229 230 227 223 215 185 195 193 206 204 189 189 184 173 156 139 128 121
185 191 198 195 200 206 212 207 217 218 218 231 231 231 229 230 229 229 232 241 223 224 224 217 224 206 200 222 227 229 222 207 199 202 207 213 216 207 210 205 187 175 165 144
205 205 212 208 213 189 203 213 214 221 223 223 228 233 228 224 226 228 229 231 217 221 223 218 227 227 205 215 227 236 231 223 215 216 214 223 223 225 224 225 224 221 224 246
208 199 194 199 208 207 195 210 207 232 236 230 231 230 226 222 223 222 227 218 224 225 227 220 228 236 230 221 227 235 239 232 227 229 226 227 232 233 235 234 239 246 254 260
Height
5783 5784 5786 5794 5798 5800 5801 5802 5806 5811 5815 5807 5807 5805 5805 5803 5799 5799 5795 5793 5789 5783 5781 5779 5776 5771 5768 5764 5761 5757 5754 5749 5744 5738 5733 5727 5721 5717 5712 5706 5700 5695 5690 5687
5774 5775 5786 5790 5791 5794 5795 5797 5800 5805 5808 5808 5805 5803 5801 5800 5795 5792 5789 5787 5784 5779 5777 5774 5771 5767 5765 5761 5757 5755 5751 5747 5742 5737 5732 5726 5721 5715 5711 5705 5700 5696 5691 5688
5767 5778 5780 5782 5784 5787 5789 5791 5795 5799 5801 5801 5799 5796 5795 5792 5792 5789 5786 5783 5779 5775 5772 5770 5768 5765 5762 5758 5755 5753 5748 5745 5740 5736 5731 5727 5721 5715 5711 5705 5700 5696 5691 5688
5760 5770 5770 5774 5776 5782 5783 5788 5791 5795 5794 5793 5795 5791 5791 5790 5787 5786 5781 5778 5776 5772 5770 5767 5765 5762 5759 5755 5753 5750 5747 5743 5739 5735 5730 5725 5719 5715 5710 5705 5701 5697 5693 5689
5756 5759 5762 5766 5772 5777 5780 5787 5791 5790 5787 5786 5787 5786 5787 5786 5785 5786 5777 5774 5772 5769 5766 5763 5761 5759 5756 5753 5751 5748 5745 5741 5737 5734 5730 5725 5720 5715 5709 5705 5702 5698 5694 5691
5748 5753 5756 5764 5770 5772 5779 5782 5784 5783 5783 5781 5784 5782 5783 5783 5785 5779 5774 5770 5768 5765 5763 5761 5759 5756 5753 5751 5749 5746 5743 5740 5736 5733 5730 5725 5720 5715 5710 5706 5703 5700 5696 5692
5739 5745 5751 5756 5763 5770 5771 5776 5776 5776 5776 5779 5780 5778 5777 5780 5779 5775 5772 5768 5764 5763 5761 5759 5756 5754 5751 5749 5746 5744 5742 5739 5735 5733 5731 5725 5720 5715 5712 5708 5705 5701 5698 5694
5733 5737 5743 5749 5754 5762 5765 5767 5770 5771 5773 5775 5777 5776 5779 5774 5774 5772 5768 5765 5763 5761 5759 5757 5755 5753 5750 5747 5745 5743 5741 5738 5735 5732 5731 5727 5722 5718 5715 5711 5707 5703 5700 5698
5726 5732 5739 5744 5751 5757 5759 5759 5768 5768 5772 5774 5776 5775 5771 5769 5769 5766 5763 5761 5761 5758 5757 5755 5753 5751 5749 5746 5744 5743 5740 5737 5734 5733 5731 5728 5724 5721 5717 5713 5708 5705 5703 5701
5722 5728 5733 5740 5747 5749 5752 5759 5760 5761 5764 5766 5769 5772 5775 5768 5767 5763 5761 5760 5758 5756 5755 5753 5751 5750 5748 5745 5743 5742 5739 5737 5734 5734 5732 5729 5726 5723 5719 5716 5711 5708 5707 5706
5716 5721 5728 5737 5732 5738 5745 5748 5751 5758 5759 5762 5765 5767 5768 5764 5763 5761 5761 5758 5756 5754 5752 5751 5750 5749 5747 5745 5744 5742 5740 5737 5735 5735 5733 5730 5728 5726 5722 5719 5714 5712 5711 5710
5705 5711 5717 5723 5730 5735 5740 5745 5747 5750 5756 5758 5763 5767 5761 5759 5761 5760 5757 5755 5754 5753 5751 5750 5749 5748 5746 5745 5744 5743 5741 5739 5736 5736 5734 5732 5730 5728 5725 5723 5719 5717 5715 5715
5696 5699 5708 5719 5726 5727 5730 5736 5742 5746 5749 5751 5756 5761 5758 5756 5758 5757 5752 5751 5752 5752 5750 5749 5748 5747 5746 5746 5745 5744 5743 5740 5739 5738 5736 5734 5733 5730 5728 5727 5725 5723 5722 5721
5683 5693 5696 5705 5714 5719 5723 5729 5735 5739 5741 5746 5751 5758 5759 5750 5754 5754 5749 5747 5750 5750 5749 5749 5748 5747 5747 5747 5746 5745 5744 5743 5741 5741 5739 5737 5736 5735 5733 5733 5731 5729 5727 5726
5670 5680 5690 5701 5711 5715 5717 5723 5728 5731 5736 5740 5748 5750 5754 5750 5750 5751 5747 5744 5747 5748 5748 5748 5748 5746 5747 5747 5747 5746 5745 5745 5744 5743 5742 5741 5740 5738 5737 5737 5736 5735 5733 5732
5661 5672 5683 5691 5701 5709 5710 5714 5720 5726 5730 5734 5740 5744 5748 5751 5747 5748 5745 5744 5745 5745 5746 5747 5747 5747 5746 5747 5748 5748 5747 5747 5746 5745 5744 5743 5742 5742 5741 5741 5741 5741 5739 5738
5645 5659 5670 5679 5691 5700 5701 5706 5712 5720 5724 5728 5733 5740 5742 5746 5747 5749 5743 5743 5743 5744 5744 5746 5747 5747 5746 5747 5748 5749 5749 5749 5748 5747 5747 5746 5746 5746 5745 5745 5745 5745 5746 5745
5633 5649 5662 5671 5682 5680 5693 5701 5708 5713 5718 5722 5728 5733 5736 5739 5741 5744 5743 5740 5739 5741 5743 5744 5746 5746 5747 5747 5748 5749 5750 5750 5750 5749 5749 5749 5749 5749 5749 5750 5751 5751 5751 5751
5627 5638 5651 5659 5667 5680 5686 5695 5699 5703 5711 5715 5721 5728 5732 5733 5735 5738 5740 5740 5737 5739 5740 5742 5744 5746 5746 5747 5747 5748 5750 5751 5752 5752 5752 5752 5752 5752 5754 5755 5755 5756 5758 5758
5621 5631 5644 5652 5659 5664 5679 5689 5695 5700 5700 5707 5714 5720 5727 5727 5728 5733 5735 5736 5734 5737 5739 5740 5742 5744 5745 5746 5746 5747 5749 5751 5752 5753 5754 5755 5755 5756 5757 5758 5759 5761 5762 5763
5612 5621 5631 5641 5652 5661 5674 5685 5688 5685 5697 5703 5707 5713 5720 5721 5725 5731 5731 5731 5731 5731 5735 5737 5740 5742 5744 5745 5745 5746 5748 5750 5752 5754 5755 5756 5757 5758 5760 5761 5762 5763 5764 5765
5607 5611 5623 5637 5643 5654 5665 5676 5677 5681 5689 5694 5698 5705 5712 5715 5720 5723 5723 5725 5728 5727 5732 5734 5736 5739 5742 5743 5744 5745 5746 5748 5750 5753 5755 5757 5758 5760 5761 5762 5764 5765 5766 5767
5593 5604 5611 5625 5637 5648 5659 5667 5669 5672 5681 5685 5692 5697 5705 5710 5714 5717 5718 5722 5724 5725 5728 5731 5733 5735 5738 5741 5742 5743 5744 5746 5749 5751 5754 5756 5758 5760 5761 5763 5764 5765 5767 5768
5582 5587 5597 5606 5619 5639 5650 5655 5658 5666 5672 5678 5683 5690 5698 5704 5707 5711 5714 5717 5719 5722 5725 5727 5729 5733 5734 5737 5740 5741 5743 5745 5747 5749 5752 5755 5757 5759 5761 5763 5764 5766 5767 5768
5570 5578 5588 5600 5614 5624 5636 5648 5655 5660 5665 5672 5677 5683 5691 5697 5700 5704 5708 5712 5715 5718 5720 5723 5726 5728 5732 5733 5737 5739 5742 5743 5745 5747 5750 5752 5755 5757 5760 5762 5764 5765 5766 5768
5558 5571 5581 5590 5598 5618 5628 5632 5636 5654 5659 5661 5670 5677 5684 5690 5694 5698 5700 5706 5710 5713 5715 5718 5721 5723 5726 5729 5732 5735 5737 5740 5742 5744 5746 5749 5752 5754 5756 5758 5760 5762 5764 5766